Szeged, Hungary

7:30 AM CET on February 28, 2017 (GMT +0100)
Szeged

Weather History for LHUD - January, 2013

Change the Weather History Date:

Saturday, January 26, 2013

  Actual Average (LRAR) Record (LRAR)
Temperature  
Mean Temperature 28 °F -  
Max Temperature 31 °F 40 °F 50 °F (2002)
Min Temperature 25 °F 27 °F 5 °F (2000)
Degree Days  
Heating Degree Days 37    
Moisture  
Dew Point 24 °F    
Average Humidity 80    
Maximum Humidity 86    
Minimum Humidity 66    
Precipitation  
Precipitation 0.00 in 0.03 in - ()
Sea Level Pressure  
Sea Level Pressure 29.96 in    
Wind  
Wind Speed 9 mph ()    
Max Wind Speed 16 mph    
Max Gust Speed -    
Visibility 7.0 miles    
Events      
Averages and records for this station are not official NWS values.
T = Trace of Precipitation, MM = Missing Value Source: Averaged Metar Reports

Daily Weather History Graph

Daily Weather History Graph

Search for Another Location

Airport or City:

Trip Planner

Search our weather history database for the weather conditions in past years. The results will help you decide how hot, cold, wet, or windy it might be!

Date:

Astronomy

Jan. 26, 2013 Rise Set
Actual Time 7:09 AM CET 4:35 PM CET
Civil Twilight 6:36 AM CET 5:08 PM CET
Nautical Twilight 6:00 AM CET 5:44 PM CET
Astronomical Twilight 5:24 AM CET 6:20 PM CET
Moon 4:14 PM CET (1/26) 6:14 AM CET (1/26)
Length of Visible Light 10h 31m
Length of Day
9h 26m
Waxing Gibbous, 99% of the Moon is Illuminated
Jan 26
Waxing Gibbous
Jan 27
Full
Feb 3
Last Quarter
Feb 10
New
Feb 17
First Quarter

Hourly Weather History & Observations

Time (CET) Temp. Windchill Dew Point Humidity Pressure Visibility Wind Dir Wind Speed Gust Speed Precip Events Conditions
12:45 AM 28.4 °F 17.0 °F 21.2 °F 74% 29.89 in 6.2 mi North 15.0 mph - N/A   Mostly Cloudy
1:00 AM 28 °F - 21 °F 66% 29.91 in 19 mi North 15.7 mph - -   Partly Cloudy
1:45 AM 26.6 °F 14.7 °F 21.2 °F 80% 29.92 in 6.2 mi North 15.0 mph - N/A   Overcast
2:45 AM 26.6 °F 14.7 °F 21.2 °F 80% 29.92 in 6.2 mi North 15.0 mph - N/A   Overcast
3:45 AM 26.6 °F 14.7 °F 21.2 °F 80% 29.89 in 6.2 mi North 15.0 mph - N/A   Mostly Cloudy
4:45 AM 26.6 °F 15.7 °F 21.2 °F 80% 29.89 in 6.2 mi North 12.7 mph - N/A   Mostly Cloudy
5:15 AM 26.6 °F 16.8 °F 21.2 °F 80% 29.89 in - North 10.4 mph - N/A   Clear
5:45 AM 26.6 °F 16.8 °F 21.2 °F 80% 29.92 in - North 10.4 mph - N/A   Clear
6:15 AM 26.6 °F 16.8 °F 21.2 °F 80% 29.92 in - North 10.4 mph - N/A   Clear
6:45 AM 26.6 °F 15.7 °F 21.2 °F 80% 29.92 in - North 12.7 mph - N/A   Clear
7:00 AM 26 °F - 21 °F 75% 29.93 in 16 mi North 11.2 mph - -   Partly Cloudy
7:15 AM 26.6 °F 16.8 °F 21.2 °F 80% 29.92 in 6.2 mi North 10.4 mph - N/A   Mostly Cloudy
7:45 AM 26.6 °F 15.7 °F 21.2 °F 80% 29.92 in 6.2 mi North 12.7 mph - N/A   Mostly Cloudy
8:15 AM 26.6 °F 16.2 °F 21.2 °F 80% 29.95 in 6.2 mi North 11.5 mph - N/A   Mostly Cloudy
8:45 AM 26.6 °F 16.8 °F 21.2 °F 80% 29.95 in 6.2 mi North 10.4 mph - N/A   Mostly Cloudy
9:15 AM 28.4 °F 19.1 °F 23.0 °F 80% 29.95 in 6.2 mi North 10.4 mph - N/A   Mostly Cloudy
9:45 AM 28.4 °F 19.7 °F 23.0 °F 80% 29.95 in 6.2 mi North 9.2 mph - N/A   Overcast
10:15 AM 28.4 °F 21.2 °F 23.0 °F 80% 29.95 in 6.2 mi NNE 6.9 mph - N/A   Overcast
10:45 AM 28.4 °F 21.2 °F 23.0 °F 80% 29.95 in 6.2 mi NNE 6.9 mph - N/A   Overcast
11:15 AM 30.2 °F 24.3 °F 23.0 °F 75% 29.95 in 6.2 mi NNE 5.8 mph - N/A   Overcast
11:45 AM 30.2 °F 24.3 °F 23.0 °F 75% 29.95 in 6.2 mi North 5.8 mph - N/A   Overcast
12:15 PM 30.2 °F 25.4 °F 24.8 °F 80% 29.95 in 6.2 mi North 4.6 mph - N/A   Overcast
12:45 PM 30.2 °F 25.4 °F 24.8 °F 80% 29.95 in 6.2 mi North 4.6 mph - N/A   Overcast
1:00 PM 30 °F - 24 °F 70% 29.96 in 12 mi North 4.5 mph - -   Partly Cloudy
1:15 PM 30.2 °F 25.4 °F 24.8 °F 80% 29.95 in 6.2 mi North 4.6 mph - N/A   Overcast
1:45 PM 30.2 °F 25.4 °F 24.8 °F 80% 29.95 in 6.2 mi North 4.6 mph - N/A   Overcast
2:15 PM 30.2 °F 25.4 °F 24.8 °F 80% 29.95 in 6.2 mi North 4.6 mph - N/A   Overcast
2:45 PM 30.2 °F 25.4 °F 24.8 °F 80% 29.95 in 6.2 mi North 4.6 mph - N/A   Overcast
3:15 PM 32.0 °F 28.7 °F 24.8 °F 75% 29.95 in 6.2 mi North 3.5 mph - N/A   Mostly Cloudy
3:45 PM 32.0 °F 28.7 °F 24.8 °F 75% 29.98 in 6.2 mi North 3.5 mph - N/A   Mostly Cloudy
4:15 PM 30.2 °F 26.7 °F 24.8 °F 80% 29.98 in 6.2 mi North 3.5 mph - N/A   Mostly Cloudy
4:45 PM 30.2 °F 26.7 °F 24.8 °F 80% 29.98 in 6.2 mi NNW 3.5 mph - N/A   Overcast
5:15 PM 30.2 °F 26.7 °F 26.6 °F 86% 29.98 in 6.2 mi NNW 3.5 mph - N/A   Overcast
5:45 PM 30.2 °F 25.4 °F 24.8 °F 80% 30.01 in 6.2 mi NNW 4.6 mph - N/A   Overcast
6:15 PM 30.2 °F 25.4 °F 26.6 °F 86% 30.01 in 6.2 mi NNW 4.6 mph - N/A   Overcast
6:45 PM 30.2 °F 24.3 °F 24.8 °F 80% 30.01 in 6.2 mi NW 5.8 mph - N/A   Overcast
7:00 PM 31 °F - 25 °F 72% 30.02 in 9 mi NW 4.5 mph - -   Partly Cloudy
7:15 PM 30.2 °F 26.7 °F 26.6 °F 86% 30.01 in 6.2 mi NW 3.5 mph - N/A   Mostly Cloudy
7:45 PM 30.2 °F - 26.6 °F 86% 30.01 in 6.2 mi NW 2.3 mph - N/A   Overcast
8:15 PM 30.2 °F - 26.6 °F 86% 30.04 in 6.2 mi NW 1.2 mph - N/A   Overcast
8:45 PM 30.2 °F - 26.6 °F 86% 30.04 in 6.2 mi Calm Calm - N/A   Overcast
9:45 PM 30.2 °F 24.3 °F 26.6 °F 86% 30.04 in 6.2 mi West 5.8 mph - N/A   Mostly Cloudy
10:45 PM 30.2 °F 26.7 °F 26.6 °F 86% 30.04 in 6.2 mi NW 3.5 mph - N/A   Mostly Cloudy
11:45 PM 30.2 °F - 26.6 °F 86% 30.04 in 6.2 mi NNW 1.2 mph - N/A   Mostly Cloudy